Location: Ward Pound Ridge Reservation
(41.2500°N, 73.6000°W)
Time: 00:24:49
(UTC-04:00)

Tiangong 2 - Pass Details

Date: 07 October 2017
Orbit: 388 x 391 km, 42.8° (Epoch: 21 October)

Event Time Altitude Azimuth Distance (km) Brightness Sun altitude
Exits shadow 05:13:03 - 167° (SSE) 1,540 4.1 -20.4°
Reaches altitude 10° 05:14:12 10° 148° (SSE) 1,415 4.2 -20.2°
Maximum altitude 05:14:31 10° 142° (SE) 1,409 4.2 -20.1°
Drops below altitude 10° 05:14:50 10° 137° (SE) 1,416 4.3 -20.1°
Sets 05:18:44 0° 89° (E) 2,278 6.6 -19.4°
